Content
SEND FEEDBACK

Daily
Averages
Monthly
Summary
France

NICE, FRANCE


Home > Europe > France
Elevation: 10 meters     Latitude: 43 39N     Longitude: 007 12E

WEATHER
 
SELECT A DAY
Number of Records: 311,435;   Date Range: 7/1/96 - 7/23/14
 
SHARE

PRINT THIS DATA

[ ← Previous Day ]
WEATHER ALMANAC - 23 MARCH, 2013
[ Next Day → ]
[ °F ]   °C
Weather ElementAverageHighLow
Temperature11.1 °C14 °C (10:00 am)8 °C (5:30 am)
Dewpoint7.6 °C10 °C (1:52 pm)5 °C (5:00 am)
Humidity78.8 %88 % (3:30 pm)67 % (9:00 am)
Barometer1009.5 hPa1012.2 hPa (12:30 am)1007.1 hPa (4:51 pm)
Wind Speed18.2 km/h40.7 km/h (4:00 pm)
Weather ElementAverage
Visibility10.5 km
Wind DirectionSSE (172.9 °)

Weather ElementTotal
Precipitation---
Heating Degree Days7.3 (Base 18.3)
Growing Degree Days1 (Base 10)
Averaged from 51 records on 23 March, 2013
WEATHER CONDITIONS BREAKOUT
WIND DIRECTION BREAKOUT
WEATHER BY HOUR - 23 MARCH, 2013
[ °F ]   °C
Local TimeTemperatureDewpointHumidityBarometerVisibilityWind DirectionWind SpeedGust SpeedPrecipitationEventsConditions
12:30 AM10 °C7 °C82 %1012.2 hPa10 kmNNW (330°)7.4 km/hMostly Cloudy
1:00 AM9.4 °C6.7 °C79 %1012.2 hPa25.7 kmNNW (330°)11.1 km/hScattered Clouds
1:00 AM10 °C7 °C82 %1012.2 hPa10 kmNNW (330°)11.1 km/hMostly Cloudy
1:30 AM9 °C7 °C87 %1012.2 hPa10 kmNNW (330°)11.1 km/hMostly Cloudy
2:00 AM9 °C6 °C82 %1011.2 hPa10 kmNNW (340°)5.6 km/hMostly Cloudy
2:30 AM9 °C6 °C82 %1011.2 hPaNNW (340°)9.3 km/hMostly Cloudy
3:00 AM9 °C6 °C82 %1011.2 hPa10 kmNorth (350°)11.1 km/hMostly Cloudy
3:30 AM9 °C6 °C82 %1010.2 hPa10 kmNNW (340°)11.1 km/hMostly Cloudy
4:00 AM9 °C6 °C82 %1010.2 hPa10 kmNNW (330°)9.3 km/hOvercast
4:30 AM9 °C6 °C82 %1010.2 hPa10 kmNNW (340°)9.3 km/hOvercast
5:00 AM9 °C5 °C76 %1010.2 hPa10 kmNNW (340°)13 km/hOvercast
5:30 AM8 °C5 °C81 %1010.2 hPa10 kmNNW (330°)13 km/hScattered Clouds
6:00 AM8 °C5 °C81 %1010.2 hPa10 kmNNW (340°)11.1 km/hScattered Clouds
6:30 AM8 °C5 °C81 %1010.2 hPa10 kmNNW (340°)11.1 km/hScattered Clouds
7:00 AM8.9 °C5 °C69 %1011.2 hPa19.3 kmNNW (330°)9.3 km/hMostly Cloudy
7:00 AM9 °C5 °C76 %1010.2 hPaNNW (330°)9.3 km/hClear
7:30 AM9 °C5 °C76 %1010.2 hPa10 kmNNW (340°)13 km/hMostly Cloudy
7:53 AM10 °C5 °C71 %1010.2 hPa10 kmNNW (340°)13 km/hMostly Cloudy
8:30 AM11 °C6 °C71 %1010.2 hPa10 kmNorth (10°)9.3 km/hMostly Cloudy
9:00 AM13 °C7 °C67 %1010.2 hPa10 kmNE (50°)14.8 km/hMostly Cloudy
9:30 AM13 °C8 °C72 %1010.2 hPa10 kmENE (70°)25.9 km/hMostly Cloudy
10:00 AM14 °C8 °C67 %1010.2 hPa10 kmENE (60°)24.1 km/hMostly Cloudy
10:30 AM14 °C8 °C67 %1009.1 hPa10 kmEast (80°)27.8 km/hMostly Cloudy
11:00 AM14 °C9 °C72 %1010.2 hPa10 kmEast (90°)31.5 km/hMostly Cloudy
11:22 AM14 °C9 °C72 %1010.2 hPa10 kmEast (90°)29.6 km/hMostly Cloudy
12:00 PM13 °C9 °C77 %1009.1 hPa10 kmEast (80°)29.6 km/hMostly Cloudy
12:30 PM13 °C9 °C77 %1010.2 hPa10 kmENE (70°)25.9 km/hMostly Cloudy
12:53 PM13 °C9 °C77 %1010.2 hPa10 kmEast (80°)31.5 km/hRainLight Rain
1:00 PM12.8 °C8.9 °C71 %1009.8 hPa14.5 kmEast (80°)33.3 km/hRainLight Rain
1:21 PM13 °C9 °C77 %1010.2 hPa10 kmEast (80°)29.6 km/hRainLight Rain
1:52 PM13 °C10 °C82 %1009.1 hPa9 kmEast (80°)33.3 km/hRainLight Rain
2:30 PM13 °C9 °C77 %1009.1 hPa8 kmEast (80°)31.5 km/hRainLight Rain
3:00 PM13 °C10 °C82 %1009.1 hPa8 kmEast (80°)35.2 km/hRainLight Rain
3:30 PM12 °C10 °C88 %1008.1 hPa10 kmEast (80°)35.2 km/hRainLight Rain
4:00 PM12 °C10 °C88 %1008.1 hPa6 kmENE (70°)40.7 km/hRainLight Rain
4:24 PM12 °C9 °C82 %1008.1 hPa10 kmEast (80°)37 km/hRainLight Rain
4:51 PM12 °C9 °C82 %1007.1 hPa10 kmEast (80°)37 km/hMostly Cloudy
5:30 PM12 °C9 °C82 %1007.1 hPa10 kmENE (70°)31.5 km/hMostly Cloudy
5:52 PM12 °C9 °C82 %1007.1 hPa10 kmENE (70°)24.1 km/hMostly Cloudy
6:21 PM12 °C9 °C82 %1007.1 hPa10 kmENE (60°)18.5 km/hRainLight Rain
7:00 PM11.7 °C8.9 °C78 %1007.8 hPa14.5 kmNNE (30°)7.4 km/hRainLight Rain
7:00 PM12 °C9 °C82 %1007.1 hPa10 kmNNE (30°)7.4 km/hRainLight Rain
7:30 PM11 °C8 °C82 %1008.1 hPa10 kmNNE (20°)7.4 km/hRainLight Rain
8:00 PM11 °C8 °C82 %1007.1 hPa10 kmNorth (10°)11.1 km/hRainLight Rain
8:30 PM11 °C8 °C82 %1008.1 hPa10 kmNorth (10°)9.3 km/hRainLight Rain
9:00 PM11 °C8 °C82 %1008.1 hPa10 kmNNW (340°)9.3 km/hMostly Cloudy
9:30 PM11 °C8 °C82 %1008.1 hPa10 kmNNE (30°)11.1 km/hMostly Cloudy
10:00 PM11 °C8 °C82 %1008.1 hPa10 kmNNW (330°)7.4 km/hMostly Cloudy
10:30 PM10 °C8 °C87 %1007.1 hPa10 kmNNW (330°)11.1 km/hMostly Cloudy
11:00 PM11 °C7 °C76 %1007.1 hPa10 kmNNE (20°)7.4 km/hRainLight Rain
11:30 PM11 °C7 °C76 %1007.1 hPa10 kmNNE (30°)11.1 km/hMostly Cloudy
Hourly data recorded from LFMN, located 0 kilometers away from Nice, France







STORIES FROM OUR PARTNERS